星链-34108(STARLINK-34108)

导读

STARLINK-34108是美国SpaceX星链星座的一颗卫星,于2025年10月3日发射入轨。星链项目旨在构建全球卫星互联网星座,为全球偏远地区等提供高速低延迟的互联网接入服务。作为星链大规模组网中的一员,该卫星进一步扩充了星座规模,助力全球卫星互联网覆盖能力提升。

Basic Information
目录编号:
65872
目录名称:
STARLINK-34108
国际标识:
2025-223U
轨道中心:
EARTH
卫星名称:
星链-34108
卫星全名:
星链-34108(STARLINK-34108)
卫星状态:
在轨 (已飞行336 天)
发射日期:
2025-10-03 UTC
国别 :
美国 (US)
星等 :
--
Orbit Information
数据来源 国际轨道数据
星历时间: 2026-09-03T14:24:18+0800
1天前
查看轨道信息
半长轴: 6840.781km
偏心率: 0.0001142
轨道倾角: 53.157°
近地点辐角 113.487°
升交点赤经 187.918°
平近点角 246.625°
近地点: 461.862km
远地点: 463.426km
周期: 93.847分钟
每日圈数: 15.3442
Detailed Information
固有亮度:
5
最大亮度:
2.5
卫星平台:
Starlink V1.0
覆盖范围:
全球
运营商:
太空探索技术公司
运营商所在国:
美国
制造商(研发单位):
太空探索技术公司
制造商所在国:
美国
使用方式:
暂无
Satellite Introduction
Starlink 计划是 SpaceX 推出的全球卫星互联网项目,通过发射低轨道卫星,为全球尤其是偏远地区提供高速、低延迟的互联网服务。自 2019 年起,Starlink 已部署数千颗卫星,旨在缩小全球数字鸿沟,推动互联网普及。该项目还为军事、航空等行业提供通信支持,带来广泛经济效益。
2D Orbit Map
3D Orbit Map
Orbit Altitude Analysis Chart
Orbit Inclination Analysis Chart
Orbit Comprehensive Analysis Chart
View Comprehensive Chart
Conjunction Data List
Event ID Objects TCA Miss Dist (km) Collision Risk Probability Collision Risk Index (CRI) Action
CDM_260906-003005-174506-587221
2026-09-06T
00:30:18+0000
0.388 km
远距离
1.811864E-4 高风险 0.8
CDM_260906-042405-174506-587221
2026-09-06T
04:24:47+0000
0.533 km
远距离
8.405837E-5 中风险 0.73
CDM_260827-221506-042906-587221
2026-08-27T
22:15:43+0000
1.437 km
极远距离
4.935694E-6 低风险 0.49